2023-030B (55837 NORAD) Tracking and Keplerian Element Data

This shows tracking and keplerian element data for the satellite.

Feedback or suggestion? Click here.




ElementValue
Catalog55837
Name2023-030B
Epoch Orbit808
Epoch Day126.51102475
Epoch Year2023
RAAN134.2579
Inclination98.9965
Eccentricity0.0004411
Argument of Perigee109.6781
Mean Anonmoly250.4876
Mean Motion14.03843552
Decay Rate7.41E-06
L11 55837U 23030B 23126.51102475 .00000741 00000+0 49783-3 0 9990
L22 55837 98.9965 134.2579 0004411 109.6781 250.4876 14.03843552 8082



Live tracking and technical data element details for 2023-030B (NORAD 55837). 2023-030B can be tracked NOW for your location showing map with azimuth and elevation plus other details from your city location.







IsCatalogInMostPopularTable: catalog: 55837, numindb: 6
Update: records affected: 1



GetName: 55837 2023-030B

Hit Count: updated at: Tue, 06 Jun 2023 02:27:25 GMT